,�O�C���x[��],����1,�O�C���x[��],����2,���ԉ��x[��],����3,���Ԏ��x[��],����4,�m��2(��󒲎�)���x[��],����5,����[��],����6
2004/7/1 0:00,24.4,0,82,0 ,27.6,0 ,73,0 ,27.3,0 ,25.7,0 
2004/7/1 0:15,23.8,0,86,0 ,27.7,0 ,72,0 ,27.3,0 ,25.8,0 
2004/7/1 0:30,23.3,0,87,0 ,27.7,0 ,72,0 ,27.3,0 ,25.9,0 
2004/7/1 0:45,23.3,0,86,0 ,27.7,0 ,71,0 ,27.3,0 ,26,0 
2004/7/1 1:00,23.7,0,73,0 ,27.7,0 ,71,0 ,27.4,0 ,26,0 
2004/7/1 1:15,23.8,0,66,0 ,27.7,0 ,71,0 ,27.4,0 ,26.1,0 
2004/7/1 1:30,23.6,0,66,0 ,27.7,0 ,71,0 ,27.4,0 ,26.1,0 
2004/7/1 1:45,23.7,0,66,0 ,27.7,0 ,70,0 ,27.3,0 ,26.2,0 
2004/7/1 2:00,23.5,0,63,0 ,27.7,0 ,70,0 ,27.3,0 ,26.2,0 
2004/7/1 2:15,23.4,0,63,0 ,27.7,0 ,70,0 ,27.3,0 ,26.3,0 
2004/7/1 2:30,23.3,0,63,0 ,27.7,0 ,70,0 ,27.3,0 ,26.3,0 
2004/7/1 2:45,23.1,0,64,0 ,27.7,0 ,70,0 ,27.3,0 ,26.4,0 
2004/7/1 3:00,23.1,0,64,0 ,27.7,0 ,69,0 ,27.3,0 ,26.4,0 
2004/7/1 3:15,23,0,64,0 ,27.7,0 ,69,0 ,27.3,0 ,26.4,0 
2004/7/1 3:30,22.8,0,66,0 ,27.7,0 ,69,0 ,27.2,0 ,26.4,0 
2004/7/1 3:45,22.9,0,65,0 ,27.7,0 ,68,0 ,27.2,0 ,26.5,0 
2004/7/1 4:00,22.8,0,65,0 ,27.7,0 ,68,0 ,27.2,0 ,26.5,0 
2004/7/1 4:15,22.8,0,64,0 ,27.7,0 ,67,0 ,27.2,0 ,26.5,0 
2004/7/1 4:30,22.8,0,63,0 ,27.7,0 ,66,0 ,27.2,0 ,26.6,0 
2004/7/1 4:45,22.9,0,60,0 ,27.7,0 ,67,0 ,27.2,0 ,26.5,0 
2004/7/1 5:00,23.3,0,56,0 ,27.7,0 ,66,0 ,27.2,0 ,26.5,0 
2004/7/1 5:15,24.5,0,53,0 ,27.9,0 ,63,0 ,27.2,0 ,26.5,0 
2004/7/1 5:30,24.8,0,51,0 ,27.9,0 ,58,0 ,27.2,0 ,26.5,0 
2004/7/1 5:45,24.7,0,50,0 ,27.8,0 ,49,0 ,26.8,0 ,26.2,0 
2004/7/1 6:00,25.9,0,47,0 ,27.7,0 ,48,0 ,26.6,0 ,26.2,0 
2004/7/1 6:15,26.7,0,43,0 ,27.6,0 ,45,0 ,26.1,0 ,26.2,0 
2004/7/1 6:30,26.5,0,40,0 ,27.4,0 ,43,0 ,25.7,0 ,26.2,0 
2004/7/1 6:45,25.3,0,44,0 ,27.2,0 ,42,0 ,25.6,0 ,26.2,0 
2004/7/1 7:00,26.3,0,42,0 ,27.1,0 ,43,0 ,25.3,0 ,26.2,0 
2004/7/1 7:15,25.9,0,40,0 ,27,0 ,41,0 ,24.8,0 ,26.2,0 
2004/7/1 7:30,26.9,0,39,0 ,26.8,0 ,41,0 ,24.5,0 ,25,0 
2004/7/1 7:45,28.3,0,35,0 ,27.3,0 ,44,0 ,24.8,0 ,25,0 
2004/7/1 8:00,28,0,33,0 ,27.5,0 ,45,0 ,25,0 ,25,0 
2004/7/1 8:15,29.7,0,31,0 ,27.8,0 ,45,0 ,25.2,0 ,25.1,0 
2004/7/1 8:30,29.2,0,30,0 ,27.9,0 ,46,0 ,25.4,0 ,25.1,0 
2004/7/1 8:45,29.2,0,26,0 ,28,0 ,45,0 ,25.5,0 ,25.1,0 
2004/7/1 9:00,29.1,0,24,0 ,28,0 ,45,0 ,25.7,0 ,25.2,0 
2004/7/1 9:15,30.2,0,22,0 ,28,0 ,43,0 ,25.8,0 ,25.2,0 
2004/7/1 9:30,29.8,0,20,0 ,28,0 ,43,0 ,25.8,0 ,25.3,0 
2004/7/1 9:45,30.2,0,20,0 ,27.9,0 ,43,0 ,25.9,0 ,25.3,0 
2004/7/1 10:00,30.2,0,21,0 ,28,0 ,43,0 ,26,0 ,25.4,0 
2004/7/1 10:15,32.2,0,18,0 ,28,0 ,42,0 ,26,0 ,25.4,0 
2004/7/1 10:30,33.8,0,18,0 ,27.9,0 ,40,0 ,26.1,0 ,25.5,0 
2004/7/1 10:45,32.4,0,21,0 ,27.9,0 ,40,0 ,26.1,0 ,25.5,0 
2004/7/1 11:00,30.3,0,25,0 ,28,0 ,41,0 ,26.1,0 ,25.6,0 
2004/7/1 11:15,29.4,0,26,0 ,28,0 ,43,0 ,26.2,0 ,25.6,0 
2004/7/1 11:30,28.4,0,29,0 ,27.9,0 ,40,0 ,26.2,0 ,25.7,0 
2004/7/1 11:45,29,0,30,0 ,28,0 ,42,0 ,26.2,0 ,25.7,0 
2004/7/1 12:00,28.4,0,33,0 ,27.9,0 ,43,0 ,26.3,0 ,25.8,0 
2004/7/1 12:15,28.8,0,32,0 ,27.9,0 ,42,0 ,26.3,0 ,25.8,0 
2004/7/1 12:30,29.1,0,31,0 ,27.9,0 ,43,0 ,26.4,0 ,25.8,0 
2004/7/1 12:45,29,0,31,0 ,27.9,0 ,43,0 ,26.4,0 ,25.9,0 
2004/7/1 13:00,29,0,32,0 ,28,0 ,43,0 ,26.5,0 ,25.9,0 
2004/7/1 13:15,29.7,0,29,0 ,28,0 ,42,0 ,26.5,0 ,26,0 
2004/7/1 13:30,29.8,0,28,0 ,28,0 ,42,0 ,26.6,0 ,26,0 
2004/7/1 13:45,29.7,0,30,0 ,28,0 ,41,0 ,26.6,0 ,26,0 
2004/7/1 14:00,30,0,28,0 ,28,0 ,41,0 ,26.7,0 ,26.1,0 
2004/7/1 14:15,29.3,0,31,0 ,28,0 ,42,0 ,26.8,0 ,26.1,0 
2004/7/1 14:30,28.9,0,34,0 ,28,0 ,42,0 ,26.8,0 ,26.1,0 
2004/7/1 14:45,29.3,0,33,0 ,28,0 ,41,0 ,26.8,0 ,26.2,0 
2004/7/1 15:00,29.2,0,33,0 ,28,0 ,41,0 ,26.8,0 ,26.2,0 
2004/7/1 15:15,28.7,0,33,0 ,28.1,0 ,41,0 ,26.8,0 ,26.2,0 
2004/7/1 15:30,29,0,33,0 ,28.1,0 ,41,0 ,26.8,0 ,26.3,0 
2004/7/1 15:45,29.1,0,34,0 ,28.1,0 ,41,0 ,26.8,0 ,26.3,0 
2004/7/1 16:00,29,0,33,0 ,28.1,0 ,41,0 ,26.8,0 ,26.3,0 
2004/7/1 16:15,29.2,0,33,0 ,28.1,0 ,41,0 ,26.9,0 ,26.4,0 
2004/7/1 16:30,29,0,33,0 ,28.1,0 ,40,0 ,27,0 ,26.4,0 
2004/7/1 16:45,28.7,0,33,0 ,28.1,0 ,40,0 ,27,0 ,26.4,0 
2004/7/1 17:00,28.4,0,34,0 ,28.1,0 ,40,0 ,27.4,0 ,26.5,0 
2004/7/1 17:15,28.3,0,36,0 ,28.1,0 ,41,0 ,27.6,0 ,26.5,0 
2004/7/1 17:30,27.9,0,36,0 ,28.1,0 ,41,0 ,27.8,0 ,26.5,0 
2004/7/1 17:45,27.6,0,36,0 ,28.1,0 ,42,0 ,28,0 ,26.6,0 
2004/7/1 18:00,27.5,0,36,0 ,28.1,0 ,41,0 ,28,0 ,26.6,0 
2004/7/1 18:15,27.1,0,38,0 ,28.1,0 ,42,0 ,28.1,0 ,26.6,0 
2004/7/1 18:30,26.9,0,39,0 ,28,0 ,41,0 ,28.1,0 ,26.7,0 
2004/7/1 18:45,26.2,0,44,0 ,28,0 ,43,0 ,28.1,0 ,26.7,0 
2004/7/1 19:00,25.4,0,46,0 ,28,0 ,43,0 ,28,0 ,26.7,0 
2004/7/1 19:15,24.5,0,49,0 ,27.9,0 ,44,0 ,28,0 ,26.8,0 
2004/7/1 19:30,24.1,0,51,0 ,27.8,0 ,43,0 ,27.9,0 ,26.8,0 
2004/7/1 19:45,23.8,0,53,0 ,27.8,0 ,44,0 ,27.8,0 ,26.8,0 
2004/7/1 20:00,23.4,0,54,0 ,27.7,0 ,45,0 ,27.7,0 ,26.2,0 
2004/7/1 20:15,22.9,0,56,0 ,27.8,0 ,47,0 ,27.7,0 ,26.3,0 
2004/7/1 20:30,22.8,0,55,0 ,27.8,0 ,45,0 ,27.6,0 ,26.4,0 
2004/7/1 20:45,21.8,0,60,0 ,27.6,0 ,45,0 ,27.5,0 ,26.4,0 
2004/7/1 21:00,21.9,0,59,0 ,27.7,0 ,52,0 ,27.6,0 ,26.4,0 
2004/7/1 21:15,21.4,0,61,0 ,27.8,0 ,52,0 ,27.7,0 ,26.5,0 
2004/7/1 21:30,21.3,0,61,0 ,27.9,0 ,51,0 ,27.6,0 ,26.5,0 
2004/7/1 21:45,20.6,0,66,0 ,27.8,0 ,51,0 ,27.6,0 ,26.5,0 
2004/7/1 22:00,20.2,0,69,0 ,27.8,0 ,50,0 ,27.5,0 ,26.6,0 
2004/7/1 22:15,20.2,0,70,0 ,27.9,0 ,50,0 ,27.5,0 ,26.6,0 
2004/7/1 22:30,19.9,0,72,0 ,27.9,0 ,49,0 ,27.5,0 ,26.6,0 
2004/7/1 22:45,20,0,72,0 ,27.9,0 ,50,0 ,27.5,0 ,26.7,0 
2004/7/1 23:00,20,0,72,0 ,27.9,0 ,50,0 ,27.5,0 ,26.4,0 
2004/7/1 23:15,19.7,0,74,0 ,27.9,0 ,50,0 ,27.5,0 ,26.1,0 
2004/7/1 23:30,18.8,0,77,0 ,27.9,0 ,50,0 ,27.5,0 ,25.8,0 
2004/7/1 23:45,19.3,0,75,0 ,27.9,0 ,51,0 ,27.5,0 ,25.9,0 
2004/7/2 0:00,20.1,0,73,0 ,27.9,0 ,51,0 ,27.5,0 ,26,0 
2004/7/2 0:15,19.3,0,77,0 ,27.9,0 ,51,0 ,27.5,0 ,26.1,0 
2004/7/2 0:30,19.2,0,76,0 ,27.9,0 ,55,0 ,27.5,0 ,26.1,0 
2004/7/2 0:45,18.9,0,78,0 ,27.8,0 ,56,0 ,27.5,0 ,26.2,0 
2004/7/2 1:00,18.8,0,79,0 ,27.7,0 ,56,0 ,27.4,0 ,26.2,0 
2004/7/2 1:15,18.3,0,81,0 ,27.7,0 ,56,0 ,27.4,0 ,26.3,0 
2004/7/2 1:30,18.3,0,80,0 ,27.6,0 ,54,0 ,27.4,0 ,26.3,0 
2004/7/2 1:45,18.4,0,81,0 ,27.6,0 ,53,0 ,27.3,0 ,26.3,0 
2004/7/2 2:00,18.8,0,77,0 ,27.6,0 ,54,0 ,27.3,0 ,26.4,0 
2004/7/2 2:15,18.6,0,79,0 ,27.5,0 ,54,0 ,27.3,0 ,26.4,0 
2004/7/2 2:30,18.8,0,77,0 ,27.5,0 ,54,0 ,27.2,0 ,26.4,0 
2004/7/2 2:45,19,0,73,0 ,27.4,0 ,54,0 ,27.2,0 ,26.3,0 
2004/7/2 3:00,18.5,0,76,0 ,27.4,0 ,53,0 ,27.2,0 ,26.4,0 
2004/7/2 3:15,18.5,0,75,0 ,27.4,0 ,53,0 ,27.2,0 ,26.4,0 
2004/7/2 3:30,18.8,0,73,0 ,27.3,0 ,52,0 ,27.1,0 ,26.4,0 
2004/7/2 3:45,18.7,0,72,0 ,27.3,0 ,52,0 ,27.1,0 ,26.4,0 
2004/7/2 4:00,18,0,77,0 ,27.3,0 ,51,0 ,27.1,0 ,26.5,0 
2004/7/2 4:15,17.4,0,80,0 ,27.2,0 ,52,0 ,27.1,0 ,26.5,0 
2004/7/2 4:30,17.1,0,84,0 ,27.3,0 ,51,0 ,27,0 ,26.5,0 
2004/7/2 4:45,16.9,0,84,0 ,27.2,0 ,51,0 ,27,0 ,26.5,0 
2004/7/2 5:00,17.7,0,81,0 ,27.3,0 ,50,0 ,27,0 ,26.4,0 
2004/7/2 5:15,18.4,0,77,0 ,27.3,0 ,51,0 ,27,0 ,26.4,0 
2004/7/2 5:30,19.1,0,73,0 ,27.4,0 ,51,0 ,27,0 ,26.3,0 
2004/7/2 5:45,19.3,0,70,0 ,27.6,0 ,50,0 ,27,0 ,25.9,0 
2004/7/2 6:00,22.1,0,61,0 ,27.7,0 ,49,0 ,27,0 ,25.9,0 
2004/7/2 6:15,22.5,0,57,0 ,27.8,0 ,48,0 ,26.9,0 ,25.7,0 
2004/7/2 6:30,21.4,0,60,0 ,27.8,0 ,44,0 ,26.9,0 ,25.7,0 
2004/7/2 6:45,23,0,55,0 ,27.7,0 ,44,0 ,26.7,0 ,25.6,0 
2004/7/2 7:00,22.7,0,55,0 ,27.7,0 ,43,0 ,26.6,0 ,25.4,0 
2004/7/2 7:15,21.2,0,59,0 ,27.3,0 ,43,0 ,26.4,0 ,25.4,0 
2004/7/2 7:30,22.5,0,55,0 ,27,0 ,43,0 ,26.2,0 ,25.1,0 
2004/7/2 7:45,22.5,0,54,0 ,26.7,0 ,42,0 ,26,0 ,25.2,0 
2004/7/2 8:00,22.1,0,52,0 ,26.3,0 ,42,0 ,26,0 ,25.2,0 
2004/7/2 8:15,22.3,0,50,0 ,26.3,0 ,42,0 ,25.9,0 ,25.2,0 
2004/7/2 8:30,23,0,48,0 ,26.1,0 ,41,0 ,25.8,0 ,25.2,0 
2004/7/2 8:45,23.2,0,46,0 ,26.1,0 ,40,0 ,25.8,0 ,25.3,0 
2004/7/2 9:00,25.9,0,40,0 ,26.3,0 ,41,0 ,25.2,0 ,25.3,0 
2004/7/2 9:15,24.7,0,41,0 ,26.2,0 ,40,0 ,25.4,0 ,25.3,0 
2004/7/2 9:30,24.4,0,43,0 ,26.1,0 ,40,0 ,25.3,0 ,25.3,0 
2004/7/2 9:45,25,0,43,0 ,26.1,0 ,41,0 ,25.4,0 ,25.3,0 
2004/7/2 10:00,25.9,0,41,0 ,26.1,0 ,43,0 ,25.3,0 ,25.3,0 
2004/7/2 10:15,26,0,41,0 ,26.1,0 ,42,0 ,25.3,0 ,25.4,0 
2004/7/2 10:30,26,0,42,0 ,26.1,0 ,44,0 ,25.3,0 ,25.4,0 
2004/7/2 10:45,26.6,0,42,0 ,26.2,0 ,44,0 ,25.3,0 ,25.4,0 
2004/7/2 11:00,26.4,0,42,0 ,26.2,0 ,45,0 ,25,0 ,25.4,0 
2004/7/2 11:15,26.4,0,43,0 ,26.2,0 ,45,0 ,24.9,0 ,25.4,0 
2004/7/2 11:30,25.9,0,45,0 ,26.3,0 ,45,0 ,24.9,0 ,25.4,0 
2004/7/2 11:45,25.9,0,44,0 ,26.3,0 ,45,0 ,25,0 ,25.4,0 
2004/7/2 12:00,26,0,43,0 ,26.3,0 ,44,0 ,24.9,0 ,25.4,0 
2004/7/2 12:15,26.4,0,42,0 ,26.4,0 ,44,0 ,24.9,0 ,25.5,0 
2004/7/2 12:30,25.2,0,46,0 ,26.4,0 ,44,0 ,25,0 ,25.5,0 
2004/7/2 12:45,26,0,43,0 ,26.4,0 ,44,0 ,25,0 ,25.5,0 
2004/7/2 13:00,26,0,43,0 ,26.4,0 ,44,0 ,25.1,0 ,25.5,0 
2004/7/2 13:15,25.8,0,44,0 ,26.4,0 ,44,0 ,25.2,0 ,25.5,0 
2004/7/2 13:30,26.2,0,44,0 ,26.5,0 ,45,0 ,25.3,0 ,25.6,0 
2004/7/2 13:45,26,0,45,0 ,26.5,0 ,45,0 ,25.3,0 ,25.6,0 
2004/7/2 14:00,25.2,0,46,0 ,26.5,0 ,45,0 ,25.4,0 ,25.6,0 
2004/7/2 14:15,26.4,0,44,0 ,26.5,0 ,45,0 ,25.5,0 ,25.6,0 
2004/7/2 14:30,25.8,0,45,0 ,26.5,0 ,45,0 ,25.5,0 ,25.7,0 
2004/7/2 14:45,25.5,0,45,0 ,26.4,0 ,45,0 ,25.5,0 ,25.7,0 
2004/7/2 15:00,25.9,0,45,0 ,26.5,0 ,45,0 ,25.5,0 ,25.7,0 
2004/7/2 15:15,25.5,0,45,0 ,26.4,0 ,44,0 ,25.5,0 ,25.7,0 
2004/7/2 15:30,25.5,0,45,0 ,26.4,0 ,44,0 ,25.5,0 ,25.7,0 
2004/7/2 15:45,25.7,0,45,0 ,26.4,0 ,45,0 ,25.5,0 ,25.8,0 
2004/7/2 16:00,25.2,0,44,0 ,26.4,0 ,43,0 ,25.5,0 ,25.8,0 
2004/7/2 16:15,24.7,0,46,0 ,26.4,0 ,44,0 ,25.3,0 ,25.8,0 
2004/7/2 16:30,24.4,0,46,0 ,26.3,0 ,44,0 ,25.3,0 ,25.8,0 
2004/7/2 16:45,24.2,0,47,0 ,26.1,0 ,44,0 ,25.3,0 ,25.8,0 
2004/7/2 17:00,24.3,0,48,0 ,26.1,0 ,44,0 ,25.4,0 ,25.8,0 
2004/7/2 17:15,23.8,0,47,0 ,26.1,0 ,44,0 ,25.5,0 ,25.8,0 
2004/7/2 17:30,23.4,0,46,0 ,25.9,0 ,42,0 ,25.4,0 ,25.8,0 
2004/7/2 17:45,23.3,0,46,0 ,25.7,0 ,41,0 ,25.3,0 ,25.8,0 
2004/7/2 18:00,23,0,47,0 ,25.6,0 ,42,0 ,25.1,0 ,25.8,0 
2004/7/2 18:15,22.8,0,49,0 ,25.5,0 ,43,0 ,25.2,0 ,25.7,0 
2004/7/2 18:30,22.5,0,50,0 ,25.7,0 ,43,0 ,25.4,0 ,25.3,0 
2004/7/2 18:45,22.2,0,51,0 ,25.8,0 ,44,0 ,25.5,0 ,25.3,0 
2004/7/2 19:00,21.8,0,52,0 ,25.9,0 ,44,0 ,25.6,0 ,25.4,0 
2004/7/2 19:15,21.1,0,55,0 ,25.9,0 ,43,0 ,25.6,0 ,25.4,0 
2004/7/2 19:30,21,0,56,0 ,25.8,0 ,44,0 ,25.6,0 ,25.4,0 
2004/7/2 19:45,20.5,0,58,0 ,25.8,0 ,44,0 ,25.6,0 ,25.4,0 
2004/7/2 20:00,20.1,0,57,0 ,25.7,0 ,43,0 ,25.6,0 ,25.4,0 
2004/7/2 20:15,19.9,0,54,0 ,25.7,0 ,42,0 ,25.6,0 ,25.4,0 
2004/7/2 20:30,19.7,0,53,0 ,25.7,0 ,40,0 ,25.6,0 ,25.4,0 
2004/7/2 20:45,19.6,0,51,0 ,25.6,0 ,39,0 ,25.6,0 ,25.4,0 
2004/7/2 21:00,19.6,0,51,0 ,25.7,0 ,39,0 ,25.6,0 ,25.4,0 
2004/7/2 21:15,19.8,0,49,0 ,25.6,0 ,39,0 ,25.5,0 ,25.4,0 
2004/7/2 21:30,19.5,0,49,0 ,25.7,0 ,41,0 ,25.5,0 ,25.3,0 
2004/7/2 21:45,19.3,0,49,0 ,25.8,0 ,42,0 ,25.5,0 ,25.3,0 
2004/7/2 22:00,19,0,49,0 ,25.8,0 ,42,0 ,25.5,0 ,25.3,0 
2004/7/2 22:15,19.4,0,48,0 ,25.9,0 ,42,0 ,25.5,0 ,25.4,0 
2004/7/2 22:30,19.2,0,49,0 ,26,0 ,42,0 ,25.5,0 ,25.4,0 
2004/7/2 22:45,19.1,0,50,0 ,26.1,0 ,43,0 ,25.5,0 ,25.5,0 
2004/7/2 23:00,18.7,0,51,0 ,26.1,0 ,43,0 ,25.6,0 ,25.5,0 
2004/7/2 23:15,18.9,0,50,0 ,26.2,0 ,43,0 ,25.6,0 ,25.5,0 
2004/7/2 23:30,18.9,0,49,0 ,26.2,0 ,43,0 ,25.6,0 ,25.6,0 
2004/7/2 23:45,19.2,0,45,0 ,26.3,0 ,43,0 ,25.6,0 ,25.6,0 
2004/7/3 0:00,18.8,0,48,0 ,26.3,0 ,43,0 ,25.6,0 ,25.7,0 
2004/7/3 0:15,18.9,0,47,0 ,26.4,0 ,43,0 ,25.7,0 ,25.7,0 
2004/7/3 0:30,19.4,0,54,0 ,26.4,0 ,43,0 ,25.7,0 ,25.7,0 
2004/7/3 0:45,19.2,0,50,0 ,26.4,0 ,43,0 ,25.7,0 ,25.8,0 
2004/7/3 1:00,18.3,0,54,0 ,26.5,0 ,43,0 ,25.7,0 ,25.8,0 
2004/7/3 1:15,17.7,0,56,0 ,26.5,0 ,43,0 ,25.7,0 ,25.9,0 
2004/7/3 1:30,18.1,0,57,0 ,26.5,0 ,44,0 ,25.7,0 ,25.9,0 
2004/7/3 1:45,18.5,0,64,0 ,26.5,0 ,43,0 ,25.8,0 ,25.9,0 
2004/7/3 2:00,18.3,0,63,0 ,26.5,0 ,43,0 ,25.8,0 ,25.9,0 
2004/7/3 2:15,18.1,0,63,0 ,26.6,0 ,43,0 ,25.8,0 ,26,0 
2004/7/3 2:30,18,0,64,0 ,26.5,0 ,44,0 ,25.8,0 ,26,0 
2004/7/3 2:45,18,0,63,0 ,26.6,0 ,44,0 ,25.9,0 ,26,0 
2004/7/3 3:00,17.6,0,67,0 ,26.6,0 ,44,0 ,25.9,0 ,25.9,0 
2004/7/3 3:15,17.3,0,68,0 ,26.6,0 ,43,0 ,25.9,0 ,25.8,0 
2004/7/3 3:30,17.2,0,70,0 ,26.5,0 ,43,0 ,25.9,0 ,25.9,0 
2004/7/3 3:45,17.1,0,70,0 ,26.6,0 ,42,0 ,25.9,0 ,25.9,0 
2004/7/3 4:00,17.1,0,71,0 ,26.5,0 ,42,0 ,25.9,0 ,25.9,0 
2004/7/3 4:15,16.8,0,70,0 ,26.4,0 ,42,0 ,25.9,0 ,26,0 
2004/7/3 4:30,16.8,0,70,0 ,26.4,0 ,42,0 ,25.9,0 ,26,0 
2004/7/3 4:45,17.1,0,70,0 ,26.4,0 ,42,0 ,25.9,0 ,26,0 
2004/7/3 5:00,16.8,0,70,0 ,26.4,0 ,42,0 ,25.9,0 ,26,0 
2004/7/3 5:15,17.3,0,70,0 ,26.4,0 ,42,0 ,25.9,0 ,26,0 
2004/7/3 5:30,17.8,0,67,0 ,26.4,0 ,42,0 ,25.9,0 ,26,0 
2004/7/3 5:45,18.4,0,65,0 ,26.5,0 ,42,0 ,25.9,0 ,26,0 
2004/7/3 6:00,19.1,0,64,0 ,26.6,0 ,42,0 ,25.9,0 ,26,0 
2004/7/3 6:15,20.7,0,57,0 ,26.7,0 ,42,0 ,25.9,0 ,26.1,0 
2004/7/3 6:30,21.4,0,54,0 ,26.8,0 ,42,0 ,25.9,0 ,26.1,0 
2004/7/3 6:45,20.7,0,55,0 ,27,0 ,42,0 ,25.9,0 ,26.1,0 
2004/7/3 7:00,20.6,0,54,0 ,27.1,0 ,41,0 ,25.9,0 ,26.1,0 
2004/7/3 7:15,22.5,0,47,0 ,27.2,0 ,41,0 ,25.9,0 ,26.1,0 
2004/7/3 7:30,21.9,0,46,0 ,27.3,0 ,41,0 ,25.9,0 ,25.7,0 
2004/7/3 7:45,23,0,45,0 ,27.3,0 ,41,0 ,25.9,0 ,25.6,0 
2004/7/3 8:00,24,0,39,0 ,27.4,0 ,41,0 ,25.9,0 ,25.5,0 
2004/7/3 8:15,22.7,0,42,0 ,27.5,0 ,41,0 ,25.9,0 ,25.6,0 
2004/7/3 8:30,23,0,43,0 ,27.6,0 ,42,0 ,25.9,0 ,25.6,0 
2004/7/3 8:45,23.6,0,41,0 ,27.6,0 ,41,0 ,25.9,0 ,25.6,0 
2004/7/3 9:00,24.5,0,39,0 ,27.5,0 ,41,0 ,25.9,0 ,25.6,0 
2004/7/3 9:15,24.2,0,38,0 ,27.5,0 ,40,0 ,25.9,0 ,25.7,0 
2004/7/3 9:30,24.6,0,39,0 ,27.5,0 ,38,0 ,25.9,0 ,25.7,0 
2004/7/3 9:45,26.3,0,33,0 ,27.5,0 ,38,0 ,26,0 ,25.7,0 
2004/7/3 10:00,26.8,0,35,0 ,27.4,0 ,37,0 ,26,0 ,25.8,0 
2004/7/3 10:15,26.3,0,35,0 ,27.4,0 ,37,0 ,26.1,0 ,25.8,0 
2004/7/3 10:30,26.1,0,34,0 ,27.4,0 ,37,0 ,26.1,0 ,25.9,0 
2004/7/3 10:45,27.5,0,32,0 ,27.4,0 ,38,0 ,26.1,0 ,25.9,0 
2004/7/3 11:00,26.9,0,33,0 ,27.3,0 ,38,0 ,26.1,0 ,25.9,0 
2004/7/3 11:15,26.4,0,33,0 ,27.3,0 ,38,0 ,26.1,0 ,25.7,0 
2004/7/3 11:30,26.4,0,34,0 ,27.3,0 ,38,0 ,26.1,0 ,25.7,0 
2004/7/3 11:45,26,0,34,0 ,27.3,0 ,38,0 ,26.1,0 ,25.7,0 
2004/7/3 12:00,26.2,0,35,0 ,27.2,0 ,39,0 ,26.1,0 ,25.8,0 
2004/7/3 12:15,26.7,0,36,0 ,27.2,0 ,39,0 ,26.1,0 ,25.8,0 
2004/7/3 12:30,26.5,0,37,0 ,27.2,0 ,39,0 ,26.1,0 ,25.9,0 
2004/7/3 12:45,26.4,0,37,0 ,27.2,0 ,39,0 ,26.1,0 ,25.6,0 
2004/7/3 13:00,26.6,0,36,0 ,27.2,0 ,40,0 ,26.1,0 ,25.6,0 
2004/7/3 13:15,26.7,0,36,0 ,27.2,0 ,40,0 ,26.2,0 ,25.7,0 
2004/7/3 13:30,26.9,0,36,0 ,27.1,0 ,39,0 ,26.2,0 ,25.7,0 
2004/7/3 13:45,26.6,0,37,0 ,26.9,0 ,38,0 ,26.1,0 ,25.7,0 
2004/7/3 14:00,26.7,0,37,0 ,26.9,0 ,38,0 ,26,0 ,25.8,0 
2004/7/3 14:15,26.4,0,38,0 ,26.9,0 ,39,0 ,25.9,0 ,25.8,0 
2004/7/3 14:30,26.1,0,38,0 ,26.8,0 ,38,0 ,25.8,0 ,25.9,0 
2004/7/3 14:45,26.4,0,38,0 ,26.8,0 ,38,0 ,25.7,0 ,25.9,0 
2004/7/3 15:00,26.1,0,38,0 ,26.8,0 ,38,0 ,25.7,0 ,25.9,0 
2004/7/3 15:15,25.4,0,40,0 ,26.6,0 ,39,0 ,25.7,0 ,25.9,0 
2004/7/3 15:30,25.1,0,40,0 ,26.6,0 ,39,0 ,25.7,0 ,25.9,0 
2004/7/3 15:45,25.8,0,38,0 ,26.6,0 ,39,0 ,25.7,0 ,25.9,0 
2004/7/3 16:00,25.3,0,40,0 ,26.4,0 ,39,0 ,25.7,0 ,25.9,0 
2004/7/3 16:15,25.3,0,40,0 ,26.4,0 ,39,0 ,25.4,0 ,26,0 
2004/7/3 16:30,25,0,40,0 ,26.4,0 ,39,0 ,25.4,0 ,26,0 
2004/7/3 16:45,24.4,0,41,0 ,26.3,0 ,39,0 ,25.2,0 ,26,0 
2004/7/3 17:00,24.1,0,39,0 ,26.2,0 ,37,0 ,25.1,0 ,26,0 
2004/7/3 17:15,23.6,0,42,0 ,25.9,0 ,38,0 ,25.2,0 ,26,0 
2004/7/3 17:30,23.8,0,41,0 ,25.9,0 ,38,0 ,25.1,0 ,26,0 
2004/7/3 17:45,23.4,0,42,0 ,25.7,0 ,38,0 ,25,0 ,25.9,0 
2004/7/3 18:00,23.1,0,43,0 ,25.5,0 ,39,0 ,25,0 ,25.9,0 
2004/7/3 18:15,22.9,0,44,0 ,25.4,0 ,39,0 ,25,0 ,25.9,0 
2004/7/3 18:30,22.3,0,46,0 ,25.1,0 ,40,0 ,24.9,0 ,25.9,0 
2004/7/3 18:45,22.3,0,45,0 ,25,0 ,40,0 ,24.9,0 ,25.9,0 
2004/7/3 19:00,22,0,46,0 ,25,0 ,40,0 ,24.9,0 ,25.8,0 
2004/7/3 19:15,21.7,0,47,0 ,24.8,0 ,40,0 ,24.9,0 ,25.8,0 
2004/7/3 19:30,21.8,0,47,0 ,24.7,0 ,40,0 ,24.9,0 ,25.8,0 
2004/7/3 19:45,21.5,0,47,0 ,24.8,0 ,41,0 ,24.9,0 ,25.7,0 
2004/7/3 20:00,21.3,0,48,0 ,25.2,0 ,43,0 ,25,0 ,25.7,0 
2004/7/3 20:15,20.9,0,47,0 ,25.4,0 ,43,0 ,25.1,0 ,25.7,0 
2004/7/3 20:30,20.8,0,48,0 ,25.8,0 ,48,0 ,25.4,0 ,25.5,0 
2004/7/3 20:45,20.8,0,49,0 ,26,0 ,50,0 ,25.6,0 ,25.4,0 
2004/7/3 21:00,20.8,0,48,0 ,26.1,0 ,49,0 ,25.7,0 ,25.4,0 
2004/7/3 21:15,20.4,0,49,0 ,26.2,0 ,48,0 ,25.7,0 ,25.5,0 
2004/7/3 21:30,20.4,0,50,0 ,26.3,0 ,48,0 ,25.7,0 ,25.5,0 
2004/7/3 21:45,20.4,0,49,0 ,26.3,0 ,49,0 ,25.8,0 ,25.5,0 
2004/7/3 22:00,20.1,0,54,0 ,26.4,0 ,49,0 ,25.8,0 ,25.3,0 
2004/7/3 22:15,19.9,0,55,0 ,26.4,0 ,52,0 ,25.8,0 ,25.3,0 
2004/7/3 22:30,20,0,54,0 ,26.4,0 ,54,0 ,25.8,0 ,25.3,0 
2004/7/3 22:45,19.9,0,55,0 ,26.5,0 ,53,0 ,25.9,0 ,25.4,0 
2004/7/3 23:00,20,0,57,0 ,26.5,0 ,53,0 ,25.9,0 ,25.4,0 
2004/7/3 23:15,19.7,0,61,0 ,26.5,0 ,53,0 ,25.9,0 ,25.5,0 
2004/7/3 23:30,19.4,0,64,0 ,26.6,0 ,53,0 ,25.9,0 ,25.5,0 
2004/7/3 23:45,19.3,0,63,0 ,26.6,0 ,54,0 ,25.9,0 ,25.5,0 
2004/7/4 0:00,19.1,0,61,0 ,26.6,0 ,55,0 ,26,0 ,25.4,0 
2004/7/4 0:15,19.3,0,60,0 ,26.6,0 ,54,0 ,26,0 ,25.4,0 
2004/7/4 0:30,19.4,0,63,0 ,26.6,0 ,54,0 ,26,0 ,25.4,0 
2004/7/4 0:45,18.8,0,69,0 ,26.7,0 ,55,0 ,26.1,0 ,25.4,0 
2004/7/4 1:00,18.9,0,66,0 ,26.7,0 ,55,0 ,26.1,0 ,25.4,0 
2004/7/4 1:15,18.5,0,68,0 ,26.7,0 ,54,0 ,26.2,0 ,25.5,0 
2004/7/4 1:30,18.6,0,67,0 ,26.7,0 ,53,0 ,26.2,0 ,25.5,0 
2004/7/4 1:45,18.5,0,68,0 ,26.6,0 ,52,0 ,26.2,0 ,25.6,0 
2004/7/4 2:00,18.4,0,69,0 ,26.6,0 ,51,0 ,26.2,0 ,25.7,0 
2004/7/4 2:15,18.7,0,68,0 ,26.6,0 ,50,0 ,26.2,0 ,25.7,0 
2004/7/4 2:30,18.3,0,69,0 ,26.6,0 ,49,0 ,26.1,0 ,25.8,0 
2004/7/4 2:45,18.3,0,70,0 ,26.6,0 ,49,0 ,26.1,0 ,25.8,0 
2004/7/4 3:00,18,0,70,0 ,26.6,0 ,49,0 ,26.1,0 ,25.9,0 
2004/7/4 3:15,17.9,0,69,0 ,26.5,0 ,50,0 ,26.1,0 ,25.9,0 
2004/7/4 3:30,17.8,0,70,0 ,26.5,0 ,50,0 ,26.1,0 ,26,0 
2004/7/4 3:45,17.7,0,71,0 ,26.5,0 ,49,0 ,26,0 ,26,0 
2004/7/4 4:00,17.7,0,71,0 ,26.5,0 ,48,0 ,26,0 ,26,0 
2004/7/4 4:15,17.7,0,73,0 ,26.5,0 ,48,0 ,26,0 ,26.1,0 
2004/7/4 4:30,17.6,0,73,0 ,26.4,0 ,49,0 ,26,0 ,26.1,0 
2004/7/4 4:45,17.9,0,72,0 ,26.4,0 ,49,0 ,26,0 ,26.1,0 
2004/7/4 5:00,18.6,0,70,0 ,26.5,0 ,49,0 ,26,0 ,26.1,0 
2004/7/4 5:15,19.2,0,67,0 ,26.5,0 ,49,0 ,26,0 ,26.1,0 
2004/7/4 5:30,20.3,0,63,0 ,26.6,0 ,49,0 ,26,0 ,26.2,0 
2004/7/4 5:45,20.9,0,60,0 ,26.7,0 ,48,0 ,26,0 ,26.2,0 
2004/7/4 6:00,21.3,0,59,0 ,26.8,0 ,47,0 ,26,0 ,26.2,0 
2004/7/4 6:15,22.2,0,54,0 ,27,0 ,47,0 ,26,0 ,26.2,0 
2004/7/4 6:30,22.6,0,54,0 ,27,0 ,47,0 ,26,0 ,26.2,0 
2004/7/4 6:45,23.5,0,51,0 ,27.2,0 ,47,0 ,26.1,0 ,26.3,0 
2004/7/4 7:00,24.5,0,49,0 ,27.3,0 ,48,0 ,26.1,0 ,26.3,0 
2004/7/4 7:15,25.1,0,47,0 ,27.4,0 ,48,0 ,26.1,0 ,26.3,0 
2004/7/4 7:30,25.8,0,43,0 ,27.5,0 ,49,0 ,26.2,0 ,26.3,0 
2004/7/4 7:45,26.4,0,43,0 ,27.6,0 ,49,0 ,26.3,0 ,26.4,0 
2004/7/4 8:00,26.9,0,42,0 ,27.6,0 ,48,0 ,26.3,0 ,26.1,0 
2004/7/4 8:15,27.6,0,40,0 ,27.7,0 ,49,0 ,26.3,0 ,25.5,0 
2004/7/4 8:30,26.9,0,43,0 ,27.6,0 ,44,0 ,26.3,0 ,25.5,0 
2004/7/4 8:45,28.4,0,40,0 ,27.5,0 ,44,0 ,26.1,0 ,25.6,0 
2004/7/4 9:00,29,0,40,0 ,27.4,0 ,45,0 ,25.8,0 ,25.6,0 
2004/7/4 9:15,28.8,0,40,0 ,27.1,0 ,45,0 ,25.5,0 ,25.6,0 
2004/7/4 9:30,29.1,0,39,0 ,27.1,0 ,45,0 ,25.4,0 ,25.4,0 
2004/7/4 9:45,28.9,0,41,0 ,27,0 ,46,0 ,25.5,0 ,25.5,0 
2004/7/4 10:00,29,0,41,0 ,27.1,0 ,47,0 ,25.7,0 ,25.5,0 
2004/7/4 10:15,29.7,0,43,0 ,27,0 ,49,0 ,25.7,0 ,25.4,0 
2004/7/4 10:30,30,0,41,0 ,27.2,0 ,50,0 ,25.7,0 ,25.5,0 
2004/7/4 10:45,29.1,0,43,0 ,27.4,0 ,50,0 ,25.8,0 ,25.5,0 
2004/7/4 11:00,29.2,0,43,0 ,27.4,0 ,51,0 ,25.9,0 ,25.1,0 
2004/7/4 11:15,29.1,0,44,0 ,27.5,0 ,51,0 ,26,0 ,25.2,0 
2004/7/4 11:30,28.9,0,46,0 ,27.5,0 ,51,0 ,26.3,0 ,25.3,0 
2004/7/4 11:45,29.2,0,46,0 ,27.6,0 ,52,0 ,26.3,0 ,25.4,0 
2004/7/4 12:00,29.1,0,47,0 ,27.7,0 ,53,0 ,26.4,0 ,25.5,0 
2004/7/4 12:15,29.1,0,47,0 ,27.7,0 ,53,0 ,26.5,0 ,25.6,0 
2004/7/4 12:30,29.7,0,47,0 ,28,0 ,53,0 ,26.7,0 ,25.5,0 
2004/7/4 12:45,29.1,0,47,0 ,27.9,0 ,54,0 ,26.8,0 ,25.6,0 
2004/7/4 13:00,29.4,0,47,0 ,28,0 ,54,0 ,27,0 ,25.6,0 
2004/7/4 13:15,30.3,0,45,0 ,28.1,0 ,55,0 ,27.2,0 ,25.7,0 
2004/7/4 13:30,31,0,44,0 ,28.3,0 ,54,0 ,27.3,0 ,25.8,0 
2004/7/4 13:45,30,0,47,0 ,28.6,0 ,54,0 ,27.5,0 ,25.9,0 
2004/7/4 14:00,29.9,0,47,0 ,28.8,0 ,53,0 ,27.5,0 ,26,0 
2004/7/4 14:15,29.7,0,48,0 ,28.7,0 ,53,0 ,27.7,0 ,26.1,0 
2004/7/4 14:30,29.3,0,49,0 ,28.6,0 ,53,0 ,27.7,0 ,26.1,0 
2004/7/4 14:45,29.3,0,49,0 ,28.6,0 ,53,0 ,27.7,0 ,26.2,0 
2004/7/4 15:00,29.3,0,48,0 ,28.6,0 ,53,0 ,27.7,0 ,26.3,0 
2004/7/4 15:15,29,0,49,0 ,28.6,0 ,53,0 ,27.7,0 ,26.4,0 
2004/7/4 15:30,29.1,0,49,0 ,28.6,0 ,53,0 ,27.7,0 ,26.4,0 
2004/7/4 15:45,28.7,0,49,0 ,28.4,0 ,52,0 ,27.7,0 ,26.5,0 
2004/7/4 16:00,28.3,0,50,0 ,28.3,0 ,52,0 ,27.7,0 ,26.5,0 
2004/7/4 16:15,27.8,0,51,0 ,28.1,0 ,53,0 ,27.6,0 ,26.1,0 
2004/7/4 16:30,27.6,0,51,0 ,28.1,0 ,52,0 ,27.6,0 ,26.2,0 
2004/7/4 16:45,27.3,0,52,0 ,27.8,0 ,53,0 ,27.5,0 ,26.2,0 
2004/7/4 17:00,27.3,0,52,0 ,27.8,0 ,53,0 ,27.5,0 ,26.1,0 
2004/7/4 17:15,27.1,0,52,0 ,27.8,0 ,53,0 ,27.5,0 ,26.1,0 
2004/7/4 17:30,26.4,0,54,0 ,27.4,0 ,53,0 ,27.4,0 ,26.1,0 
2004/7/4 17:45,26.2,0,54,0 ,27.2,0 ,54,0 ,27.4,0 ,26.1,0 
2004/7/4 18:00,26.1,0,55,0 ,27.1,0 ,54,0 ,27.2,0 ,26,0 
2004/7/4 18:15,25.5,0,57,0 ,26.8,0 ,55,0 ,27.2,0 ,25.9,0 
2004/7/4 18:30,25,0,57,0 ,26.6,0 ,54,0 ,27,0 ,25.7,0 
2004/7/4 18:45,24.7,0,58,0 ,26.3,0 ,54,0 ,26.8,0 ,25.8,0 
2004/7/4 19:00,24.4,0,59,0 ,26.6,0 ,54,0 ,26.7,0 ,25.8,0 
2004/7/4 19:15,24.2,0,59,0 ,26.9,0 ,54,0 ,26.8,0 ,25.8,0 
2004/7/4 19:30,23.9,0,60,0 ,27.1,0 ,54,0 ,26.8,0 ,25.6,0 
2004/7/4 19:45,23.6,0,60,0 ,27.2,0 ,54,0 ,26.9,0 ,25.7,0 
2004/7/4 20:00,23.2,0,60,0 ,27.3,0 ,55,0 ,27,0 ,25.7,0 
2004/7/4 20:15,23.1,0,58,0 ,27.3,0 ,54,0 ,27,0 ,25.8,0 
2004/7/4 20:30,22.8,0,56,0 ,27.3,0 ,54,0 ,27,0 ,25.9,0 
2004/7/4 20:45,22.5,0,58,0 ,27.3,0 ,53,0 ,27,0 ,25.9,0 
2004/7/4 21:00,22.1,0,62,0 ,27.3,0 ,52,0 ,27,0 ,26,0 
2004/7/4 21:15,21.8,0,65,0 ,27.3,0 ,52,0 ,27,0 ,26,0 
2004/7/4 21:30,21.5,0,69,0 ,27.3,0 ,52,0 ,27,0 ,26.1,0 
2004/7/4 21:45,21.4,0,70,0 ,27.3,0 ,52,0 ,26.9,0 ,26.1,0 
2004/7/4 22:00,21.3,0,72,0 ,27.3,0 ,53,0 ,26.9,0 ,26.1,0 
2004/7/4 22:15,21.1,0,72,0 ,27.3,0 ,53,0 ,26.9,0 ,25.9,0 
2004/7/4 22:30,21.1,0,73,0 ,27.4,0 ,53,0 ,26.9,0 ,25.9,0 
2004/7/4 22:45,21.4,0,72,0 ,27.4,0 ,54,0 ,26.9,0 ,25.9,0 
2004/7/4 23:00,20.8,0,75,0 ,27.4,0 ,54,0 ,26.9,0 ,25.9,0 
2004/7/4 23:15,20.8,0,74,0 ,27.4,0 ,54,0 ,26.9,0 ,26,0 
2004/7/4 23:30,20.7,0,77,0 ,27.4,0 ,55,0 ,26.9,0 ,26,0 
2004/7/4 23:45,20.6,0,77,0 ,27.4,0 ,56,0 ,26.9,0 ,25.8,0 
2004/7/5 0:00,20.9,0,77,0 ,27.4,0 ,57,0 ,26.9,0 ,25.9,0 
2004/7/5 0:15,20.6,0,78,0 ,27.3,0 ,58,0 ,26.9,0 ,25.9,0 
2004/7/5 0:30,20.2,0,79,0 ,27.3,0 ,58,0 ,26.9,0 ,25.9,0 
2004/7/5 0:45,20.5,0,79,0 ,27.2,0 ,58,0 ,26.8,0 ,26,0 
2004/7/5 1:00,20.6,0,78,0 ,27.3,0 ,58,0 ,26.8,0 ,26,0 
2004/7/5 1:15,20.3,0,80,0 ,27.2,0 ,58,0 ,26.8,0 ,26.1,0 
2004/7/5 1:30,20.3,0,81,0 ,27.2,0 ,57,0 ,26.8,0 ,26.1,0 
2004/7/5 1:45,20.6,0,78,0 ,27.2,0 ,57,0 ,26.8,0 ,26.1,0 
2004/7/5 2:00,20.7,0,78,0 ,27.2,0 ,57,0 ,26.8,0 ,26.2,0 
2004/7/5 2:15,20.4,0,79,0 ,27.1,0 ,57,0 ,26.7,0 ,26.2,0 
2004/7/5 2:30,20.4,0,81,0 ,27.1,0 ,57,0 ,26.7,0 ,26.2,0 
2004/7/5 2:45,20.6,0,78,0 ,27.1,0 ,56,0 ,26.7,0 ,26.2,0 
2004/7/5 3:00,20.6,0,78,0 ,27.2,0 ,56,0 ,26.7,0 ,26.3,0 
2004/7/5 3:15,20.7,0,77,0 ,27.1,0 ,56,0 ,26.7,0 ,26.3,0 
2004/7/5 3:30,20.2,0,78,0 ,27.1,0 ,55,0 ,26.7,0 ,26.3,0 
2004/7/5 3:45,20.5,0,78,0 ,27.1,0 ,55,0 ,26.7,0 ,26.3,0 
2004/7/5 4:00,20.5,0,77,0 ,27.1,0 ,55,0 ,26.6,0 ,26.3,0 
2004/7/5 4:15,20.6,0,76,0 ,27.1,0 ,55,0 ,26.6,0 ,26.3,0 
2004/7/5 4:30,20.5,0,77,0 ,27.1,0 ,55,0 ,26.6,0 ,26.4,0 
2004/7/5 4:45,20.2,0,79,0 ,27.1,0 ,56,0 ,26.6,0 ,26.4,0 
2004/7/5 5:00,20.2,0,79,0 ,27.1,0 ,56,0 ,26.6,0 ,26.4,0 
2004/7/5 5:15,20.4,0,79,0 ,27.1,0 ,55,0 ,26.6,0 ,26.4,0 
2004/7/5 5:30,20.3,0,79,0 ,27.1,0 ,55,0 ,26.6,0 ,26.4,0 
2004/7/5 5:45,20.3,0,78,0 ,27.1,0 ,55,0 ,26.7,0 ,26.1,0 
2004/7/5 6:00,20.1,0,81,0 ,27.1,0 ,55,0 ,26.7,0 ,26.2,0 
2004/7/5 6:15,20.2,0,82,0 ,27.1,0 ,58,0 ,26.7,0 ,26,0 
2004/7/5 6:30,20.3,0,81,0 ,27.2,0 ,58,0 ,26.7,0 ,26,0 
2004/7/5 6:45,20.4,0,83,0 ,27.2,0 ,58,0 ,26.7,0 ,25.6,0 
2004/7/5 7:00,20.4,0,83,0 ,27,0 ,56,0 ,26.7,0 ,25.7,0 